Theta_e
301 304 307 307 305 304 305 306 306 307 306 305 304 303 303 304 305 306 307 307 307 307 306 305 305 306 305 305 306 306 305 305 307 306 307 308 310 310 310 319 318 319 320
300 304 306 305 305 305 305 305 306 305 306 306 305 304 304 305 306 307 307 307 306 307 306 305 304 305 304 305 305 305 304 304 306 304 303 300 305 308 310 312 316 317 318
300 303 305 304 304 303 302 304 305 305 305 306 306 306 306 306 305 304 304 305 306 306 306 305 305 304 304 304 304 305 303 301 303 305 305 299 298 303 309 308 310 314 315
302 303 303 302 301 302 303 303 304 303 304 304 303 301 300 299 301 301 303 304 305 305 306 306 305 304 304 303 304 306 304 303 301 303 307 306 306 301 299 305 307 308 310
300 301 301 301 302 303 302 302 302 302 302 302 301 300 299 300 301 301 301 302 302 304 304 304 303 303 304 303 303 303 303 303 301 301 301 301 302 302 304 299 301 304 306
299 299 300 301 301 302 302 301 301 301 301 301 300 299 298 298 298 299 298 299 300 301 302 302 301 301 302 302 302 302 302 302 302 301 301 300 299 299 298 296 297 298 302
296 297 297 298 300 300 301 300 300 300 300 300 299 299 298 298 297 297 297 297 297 298 298 299 299 299 300 301 301 301 300 301 300 300 300 300 300 301 300 298 296 296 300
297 297 298 299 300 300 300 300 299 299 299 299 298 298 298 297 298 298 297 297 297 297 297 298 298 298 299 299 299 299 299 300 299 299 299 299 299 300 299 298 296 294 295
296 297 299 299 299 299 299 299 298 298 298 298 298 297 297 297 297 297 297 297 297 299 297 297 296 297 297 297 297 297 297 298 298 298 298 298 298 298 297 297 297 294 290
297 297 298 299 299 299 299 299 298 297 297 298 297 297 297 297 297 297 296 296 297 297 296 296 296 296 296 296 295 295 296 295 296 297 296 296 297 296 295 295 295 294 292
296 296 297 298 298 298 298 298 297 297 297 297 297 297 297 297 297 297 296 296 296 296 296 296 295 295 295 295 294 293 294 294 294 294 294 295 295 294 294 293 292 292 291
297 296 297 297 296 296 297 296 296 296 296 296 296 296 297 297 296 295 295 294 293 292 292 293 293 293 293 293 293 292 293 293 292 293 292 292 295 292 293 292 291 290 290
296 296 295 296 296 296 296 296 296 295 296 295 295 295 295 295 293 291 290 290 290 289 290 290 290 290 290 290 290 292 293 294 294 293 292 292 292 290 291 291 290 290 292
294 295 295 294 295 296 296 295 295 295 295 294 292 292 292 292 290 289 289 289 289 289 289 289 289 290 290 290 290 289 291 292 293 294 293 293 292 291 290 290 289 290 288
293 293 293 294 294 295 295 295 295 294 293 291 290 290 290 290 289 289 289 289 288 289 289 288 289 289 289 291 288 289 290 290 290 292 293 293 294 296 295 292 288 288 287
293 294 294 294 295 294 295 296 295 294 293 291 290 290 289 289 288 288 288 288 287 287 287 287 288 288 290 294 296 293 289 290 289 288 290 291 294 294 299 299 298 294 288
292 293 294 294 295 295 295 294 295 294 292 291 290 290 289 288 288 288 288 287 287 286 286 286 286 286 286 295 297 297 290 289 287 287 288 289 291 293 291 294 297 296 297
291 292 293 294 295 296 295 295 295 294 293 291 290 289 289 289 288 288 287 287 286 286 285 285 286 285 287 295 296 297 289 288 287 287 287 287 287 289 291 290 289 289 290
292 293 293 294 294 295 296 294 294 294 293 291 290 290 290 289 289 287 287 286 286 285 285 286 285 284 285 293 295 294 287 286 286 287 286 286 287 291 296 290 288 288 290
293 293 294 294 295 295 293 292 292 292 291 293 292 291 292 290 288 287 286 286 286 285 285 285 285 287 285 291 294 294 288 284 286 285 285 292 291 294 296 290 287 285 287
292 293 292 292 292 292 291 289 290 289 291 292 291 291 290 289 288 287 286 286 285 285 284 284 284 284 285 285 293 295 289 287 286 286 286 286 292 295 296 296 288 288 289
290 291 290 290 290 291 290 289 288 290 290 289 289 288 287 287 288 285 285 285 284 283 284 284 284 286 285 290 292 295 295 292 287 286 287 287 292 293 294 294 293 293 292
286 288 286 287 288 288 288 286 286 288 287 286 285 285 285 286 285 284 283 284 283 283 284 283 283 284 285 283 291 294 294 294 290 288 289 292 293 293 293 293 292 292 288
283 284 284 284 284 286 287 285 286 287 286 285 284 286 285 286 285 285 285 283 283 283 283 282 282 282 282 282 283 285 285 288 288 288 287 290 291 291 290 290 289 288 287
282 282 282 282 283 284 285 286 287 287 287 286 286 286 285 284 284 285 285 284 285 285 283 283 283 282 282 284 288 288 287 286 288 289 288 287 286 285 285 285 286 286 284
282 282 282 282 283 283 284 285 286 286 285 285 285 285 284 283 284 284 284 289 291 292 292 292 290 288 290 291 292 292 291 291 290 287 285 283 283 283 284 284 284 284 285
Wind_Speed
8 7 7 7 7 5 5 4 3 2 2 3 2 3 2 3 3 4 4 4 4 5 5 4 5 5 4 5 5 3 5 5 5 4 7 5 3 5 6 3 2 2 4
7 7 7 5 4 5 5 4 4 4 3 2 2 1 1 2 2 3 4 6 6 5 4 5 5 6 4 6 5 4 3 3 5 3 3 5 5 6 5 5 5 3 1
9 8 8 7 6 5 4 5 4 5 4 4 2 3 2 2 3 4 3 4 5 4 4 5 5 5 4 4 4 4 4 3 4 6 3 4 3 8 3 5 6 8 3
8 7 7 6 7 4 4 5 4 4 4 5 4 5 3 3 3 2 3 5 6 5 4 5 6 6 4 5 4 4 3 2 4 4 4 4 4 4 6 3 5 6 7
9 7 7 7 6 5 3 3 4 4 4 4 4 3 4 3 3 3 6 6 6 6 6 6 6 6 4 5 6 6 5 2 2 2 3 3 3 5 4 5 6 4 6
7 7 7 7 4 3 3 2 4 4 4 4 5 5 5 5 4 4 4 4 4 4 6 6 5 6 5 5 5 5 6 5 4 3 3 3 2 4 3 4 4 6 5
6 6 6 5 6 5 3 2 3 4 3 4 4 4 4 4 4 4 3 5 4 3 5 6 6 4 5 5 5 5 5 5 4 4 3 3 3 2 2 3 4 3 5
7 8 8 7 6 7 5 3 3 2 3 3 2 3 3 2 2 3 2 3 3 3 5 6 6 6 6 5 5 3 4 5 4 6 5 4 4 3 3 2 3 6 2
7 8 7 6 6 6 5 4 2 2 2 1 1 2 2 2 2 4 3 2 3 4 5 6 6 7 6 6 6 4 5 5 4 5 4 3 3 3 3 2 0 1 4
7 7 8 8 7 7 7 6 5 4 4 2 1 1 1 1 3 2 2 3 4 3 5 5 6 6 6 6 6 5 5 5 4 4 5 4 3 4 3 2 2 2 3
8 7 7 7 8 7 7 7 6 5 4 4 2 2 2 2 3 3 2 3 4 5 6 5 6 6 6 6 6 6 6 6 6 6 5 6 5 4 3 2 2 2 2
9 8 8 8 7 7 6 6 6 5 5 3 2 3 4 3 3 3 3 4 4 5 6 6 6 6 6 6 6 5 6 6 6 6 5 6 5 6 5 3 4 3 3
1 4 6 7 8 7 7 6 5 5 4 3 3 3 3 2 2 3 4 4 5 5 6 6 6 6 6 6 6 5 6 7 7 6 5 5 5 5 4 4 4 3 3
8 6 5 6 7 7 7 6 5 5 4 3 4 4 4 2 3 3 4 4 4 5 5 5 6 6 6 6 5 5 6 6 7 6 5 6 5 5 5 4 5 4 4
11 11 9 4 4 5 5 4 3 4 3 3 4 5 4 3 4 4 4 4 4 5 6 6 6 6 5 5 3 4 6 6 7 7 6 5 6 8 7 4 5 5 4
7 8 10 8 5 2 5 5 4 4 4 4 6 5 5 5 5 5 5 5 6 6 6 6 6 7 5 8 7 5 5 6 7 7 6 6 8 7 9 9 11 9 5
7 9 9 8 6 5 4 2 2 3 4 5 6 6 6 6 5 5 5 6 7 6 7 7 7 7 7 11 11 10 5 6 6 7 6 6 4 7 6 8 7 8 12
8 8 7 8 8 7 4 2 2 3 5 6 6 6 6 6 5 5 7 6 5 6 6 7 7 7 7 12 14 14 6 6 9 8 8 7 8 7 6 6 6 6 7
6 6 6 6 7 7 6 5 6 5 6 7 7 7 7 6 6 7 7 6 5 6 6 6 7 7 8 15 15 12 6 6 9 9 8 7 7 11 11 6 6 7 9
5 5 7 6 7 7 6 6 6 6 6 6 6 4 5 6 7 7 7 6 5 6 5 7 7 10 9 15 18 15 5 6 7 7 8 14 11 14 14 7 6 6 10
6 6 6 6 6 6 5 5 6 7 7 6 5 5 6 7 7 7 6 6 6 6 7 8 8 8 10 10 18 19 7 7 8 7 8 8 15 15 14 13 6 8 7
7 6 6 6 6 7 6 7 7 7 6 7 6 6 7 7 8 8 7 7 7 7 9 9 9 8 10 14 14 17 16 12 8 10 8 8 17 18 16 12 13 16 16
6 6 6 7 7 7 7 8 7 7 7 7 8 8 8 9 8 7 8 7 6 7 8 8 8 8 6 5 13 17 18 18 12 9 11 18 19 21 17 20 21 21 7
6 5 7 8 8 7 7 7 8 8 7 8 8 9 9 10 8 7 6 6 8 8 8 8 8 6 5 5 5 7 7 10 7 6 6 9 14 18 16 14 11 7 8
6 6 6 9 11 9 10 9 10 10 12 11 11 11 9 7 9 9 9 9 10 10 10 10 8 8 10 10 15 14 9 7 10 14 9 9 9 10 10 9 9 8 6
7 7 8 10 11 11 12 12 10 11 12 12 11 10 8 6 8 9 10 15 19 22 23 23 17 12 19 24 25 24 24 24 23 11 9 10 9 10 10 11 10 8 10
Wind_Direction
109 98 94 96 99 117 138 104 64 76 48 2 353 3 20 333 2 16 349 314 349 344 348 318 327 333 338 326 323 334 345 326 326 327 331 303 300 61 353 347 96 29 2
127 130 127 136 159 117 105 87 65 49 58 23 349 31 293 304 281 319 324 13 357 333 331 336 323 328 335 332 330 349 335 315 345 319 314 348 339 14 337 356 2 332 358
155 157 156 149 121 93 93 92 75 58 36 14 333 348 334 330 6 354 350 321 321 355 352 337 329 322 330 324 325 319 348 332 320 341 316 347 334 334 309 337 358 350 327
142 155 142 139 122 120 95 95 74 51 43 22 17 14 12 5 339 327 341 335 5 358 8 3 348 335 326 325 311 340 338 326 306 330 352 338 305 310 320 337 326 350 334
137 140 134 114 121 126 109 89 84 63 40 23 35 39 19 354 333 357 353 359 343 357 14 16 347 336 330 321 323 323 317 307 304 287 316 312 312 281 279 310 329 327 316
124 118 114 126 131 131 113 68 101 52 45 35 27 39 31 351 359 356 358 343 342 351 9 356 345 338 338 336 326 319 317 302 294 294 287 272 278 302 312 307 314 308 313
122 136 155 171 163 151 127 118 67 74 26 42 29 28 26 2 350 5 344 341 339 341 343 344 335 325 321 323 320 312 302 295 293 294 290 290 288 287 296 308 305 322 311
170 174 188 178 162 145 147 132 93 98 59 37 9 30 26 5 346 345 338 345 340 333 332 334 333 333 330 325 320 313 301 293 291 288 289 286 296 308 303 297 334 323 308
192 182 179 163 163 157 158 126 122 107 99 8 347 38 22 10 342 333 360 346 340 323 346 337 341 334 331 331 327 317 309 309 298 295 291 284 279 287 290 307 324 267 312
193 187 181 184 180 171 162 172 181 186 185 186 169 200 243 289 299 310 341 341 326 317 328 334 332 326 334 339 342 329 320 330 317 298 301 290 274 283 293 273 257 231 229
203 198 192 191 182 171 174 194 188 198 190 185 204 210 228 266 297 297 328 326 321 325 328 327 326 328 339 344 341 333 334 337 325 325 321 315 307 283 278 284 280 255 228
196 195 194 193 181 180 188 199 200 197 175 180 228 248 236 237 285 327 335 337 326 331 330 325 330 329 330 331 327 326 321 317 314 308 323 315 322 319 301 277 274 257 257
121 198 197 195 187 189 195 195 204 200 167 184 236 265 276 284 308 322 333 329 327 325 322 328 323 317 319 322 318 340 326 319 308 302 301 291 306 307 305 300 290 283 284
351 315 243 211 191 188 185 185 204 181 183 201 238 251 264 275 286 292 299 305 305 308 305 299 298 299 303 312 310 336 318 310 305 301 293 279 269 274 292 297 296 292 295
3 349 329 261 223 188 163 171 167 163 200 228 248 253 256 260 268 281 283 289 294 286 280 284 291 289 287 286 282 310 303 302 302 298 298 289 274 263 263 277 279 288 288
358 351 348 347 350 234 188 173 156 200 206 243 260 262 256 254 250 260 270 274 278 277 278 279 278 283 271 271 273 277 283 286 287 293 287 291 290 282 261 257 261 238 239
2 359 351 347 345 358 65 126 221 229 206 239 258 261 259 263 264 269 274 274 272 272 275 276 275 273 272 273 277 263 252 266 267 268 273 281 258 283 275 272 281 288 275
2 356 348 349 356 353 358 357 325 283 271 267 268 278 272 262 269 272 268 267 264 265 263 268 269 269 274 271 276 273 253 266 272 262 261 252 267 256 268 287 286 274 264
0 348 347 336 339 341 340 1 347 317 288 263 256 254 256 263 269 272 271 267 266 269 262 255 266 260 266 268 268 271 243 254 267 273 263 254 253 256 243 239 266 284 283
353 344 325 327 335 327 358 353 317 300 287 289 288 300 307 290 277 270 268 260 250 255 257 264 252 255 261 268 272 269 235 246 262 276 268 267 258 257 255 226 230 259 275
332 327 338 325 318 332 330 305 293 284 278 295 290 288 285 279 270 264 257 259 264 269 267 261 263 256 254 260 266 269 248 236 253 258 272 273 268 269 267 235 211 235 262
335 328 318 307 304 303 299 278 272 274 295 297 289 280 272 269 270 259 261 256 250 253 262 265 265 259 254 255 257 261 261 256 246 252 260 268 283 285 277 261 259 269 279
317 318 316 305 295 293 285 283 268 268 266 265 254 251 253 255 253 253 258 264 252 251 260 261 267 267 264 260 270 274 275 274 273 262 248 258 267 274 278 275 275 277 258
304 302 307 298 292 282 278 272 281 274 268 266 265 267 264 268 264 265 264 265 270 266 266 269 269 269 270 275 280 279 283 285 290 315 299 273 263 259 257 263 266 258 250
280 283 284 290 289 294 290 279 279 280 280 276 279 278 269 260 270 264 261 260 259 256 267 266 266 272 275 272 273 276 281 280 275 282 271 268 265 268 270 263 256 250 235
276 280 277 276 281 281 286 288 283 286 289 292 289 282 270 255 262 267 271 263 263 268 269 271 266 267 266 273 276 278 280 282 284 279 269 268 260 258 257 263 265 255 253